Torrington, WY

5:42 PM MDT on March 25, 2017 (GMT -0600)
Torrington Municipal

Weather History for KTOR - September, 2013

Change the Weather History Date:

Sunday, September 15, 2013

  Actual Average Record
Temperature  
Mean Temperature 59 °F 61 °F  
Max Temperature 66 °F 78 °F 92 °F (2000)
Min Temperature 51 °F 44 °F 35 °F (2003)
Degree Days  
Heating Degree Days 6 5  
Month to date heating degree days 15 50  
Since 1 July heating degree days 17 72  
Cooling Degree Days 0 1  
Month to date cooling degree days 109 37  
Year to date cooling degree days 882 670  
Growing Degree Days 8 (Base 50)    
Moisture  
Dew Point 53 °F    
Average Humidity 78    
Maximum Humidity 96    
Minimum Humidity 60    
Precipitation  
Precipitation T in 0.04 in 0.34 in (2001)
Month to date precipitation 1.58 0.68  
Year to date precipitation 8.39 11.64  
Sea Level Pressure  
Sea Level Pressure 30.12 in    
Wind  
Wind Speed 10 mph (ENE)    
Max Wind Speed 18 mph    
Max Gust Speed 22 mph    
Visibility 10 miles    
Events Rain    
T = Trace of Precipitation, MM = Missing Value Source: NWS Daily Summary

Daily Weather History Graph

Daily Weather History Graph

Search for Another Location

Airport or City:

Trip Planner

Search our weather history database for the weather conditions in past years. The results will help you decide how hot, cold, wet, or windy it might be!

Date:

Astronomy

Sep. 15, 2013 Rise Set
Actual Time 6:36 AM MDT 7:05 PM MDT
Civil Twilight 6:08 AM MDT 7:33 PM MDT
Nautical Twilight 5:35 AM MDT 8:06 PM MDT
Astronomical Twilight 5:01 AM MDT 8:40 PM MDT
Moon 4:37 PM MDT (9/15) 2:14 AM MDT (9/15)
Length of Visible Light 13h 24m
Length of Day
12h 28m
Waxing Gibbous, 82% of the Moon is Illuminated
Sep 15
Waxing Gibbous
Sep 19
Full
Sep 26
Last Quarter
Oct 4
New
Oct 11
First Quarter

Hourly Weather History & Observations

Time (MDT) Temp. Dew Point Humidity Pressure Visibility Wind Dir Wind Speed Gust Speed Precip Events Conditions
12:14 AM 64.4 °F 55.4 °F 73% 30.05 in 10.0 mi ENE 9.2 mph - N/A   Overcast
12:53 AM 63.0 °F 55.9 °F 78% 29.93 in 10.0 mi NE 13.8 mph - N/A   Overcast
1:27 AM 62.6 °F 55.4 °F 77% 30.07 in 10.0 mi NE 12.7 mph - N/A   Overcast
1:53 AM 61.0 °F 55.0 °F 81% 29.96 in 10.0 mi NNE 10.4 mph - N/A   Overcast
2:53 AM 60.1 °F 55.0 °F 83% 29.95 in 10.0 mi NNE 6.9 mph - N/A   Mostly Cloudy
3:51 AM 60.8 °F 55.4 °F 82% 30.11 in 10.0 mi NE 6.9 mph - N/A   Overcast
3:53 AM 60.1 °F 55.0 °F 83% 29.97 in 10.0 mi NE 6.9 mph - N/A   Overcast
4:53 AM 60.1 °F 55.0 °F 83% 29.99 in 10.0 mi ENE 6.9 mph - N/A   Overcast
5:53 AM 59.0 °F 55.9 °F 90% 30.02 in 10.0 mi NE 11.5 mph - 0.00 in Rain Light Rain
6:53 AM 57.9 °F 55.0 °F 90% 30.06 in 10.0 mi NE 9.2 mph 19.6 mph 0.00 in   Overcast
7:53 AM 57.9 °F 54.0 °F 87% 30.09 in 10.0 mi NE 11.5 mph - N/A   Overcast
8:53 AM 57.9 °F 54.0 °F 87% 30.12 in 10.0 mi NE 13.8 mph - N/A   Overcast
9:53 AM 57.9 °F 54.0 °F 87% 30.15 in 10.0 mi NE 12.7 mph - N/A   Overcast
10:37 AM 59.0 °F 53.6 °F 82% 30.24 in 10.0 mi NE 17.3 mph - N/A   Overcast
10:53 AM 59.0 °F 53.1 °F 81% 30.16 in 10.0 mi NE 15.0 mph - N/A   Overcast
11:53 AM 60.1 °F 52.0 °F 75% 30.17 in 10.0 mi NE 12.7 mph - N/A   Overcast
12:05 PM 60.8 °F 51.8 °F 72% 30.26 in 10.0 mi ENE 15.0 mph - N/A   Overcast
12:53 PM 61.0 °F 51.1 °F 70% 30.18 in 10.0 mi ENE 9.2 mph - N/A   Overcast
1:53 PM 63.0 °F 52.0 °F 67% 30.17 in 10.0 mi East 9.2 mph - N/A   Overcast
2:53 PM 64.0 °F 50.0 °F 60% 30.17 in 10.0 mi East 15.0 mph - N/A   Overcast
3:53 PM 64.9 °F 50.0 °F 58% 30.15 in 10.0 mi East 12.7 mph - N/A   Overcast
4:53 PM 64.9 °F 50.0 °F 58% 30.16 in 10.0 mi ESE 11.5 mph - N/A   Mostly Cloudy
5:53 PM 64.0 °F 51.1 °F 63% 30.16 in 10.0 mi East 10.4 mph - N/A   Clear
6:53 PM 60.1 °F 52.0 °F 75% 30.17 in 10.0 mi ESE 12.7 mph - N/A   Clear
7:53 PM 57.0 °F 50.0 °F 77% 30.19 in 10.0 mi ESE 9.2 mph - N/A   Clear
8:53 PM 54.0 °F 50.0 °F 86% 30.21 in 10.0 mi ESE 8.1 mph - N/A   Clear
9:53 PM 53.1 °F 50.0 °F 89% 30.22 in 10.0 mi ESE 6.9 mph - N/A   Scattered Clouds
10:53 PM 52.0 °F 50.0 °F 93% 30.21 in 10.0 mi ESE 9.2 mph - N/A   Partly Cloudy
11:53 PM 52.0 °F 50.0 °F 93% 30.20 in 10.0 mi ESE 9.2 mph - N/A   Clear